Location: Austin
(30.3000°N, 97.7500°W)
Time: 04:03:26
(UTC-06:00)

Meteor 2-5 Rocket - Pass Details

Date: 05 February 2026
Orbit: 833 x 910 km, 81.2° (Epoch: 15 February)

Event Time Altitude Azimuth Distance (km) Brightness Sun altitude
Exits shadow 05:08:05 52° 186° (S) 1,102 4.1 -28.6°
Drops below altitude 10° 05:12:25 10° 178° (S) 2,554 6.2 -27.7°
Sets 05:14:50 0° 177° (S) 3,481 7.0 -27.1°
